Galveston, TX

6:47 AM CDT on August 19, 2019 (GMT -0500)
Scholes International At Galveston

Weather History for KGLS - July, 2019

Change the Weather History Date:

Monday, July 22, 2019

  Actual Average Record
Temperature  
Mean Temperature 87 °F 85 °F  
Max Temperature 91 °F 90 °F 97 °F (1965)
Min Temperature 82 °F 80 °F 69 °F (1970)
Degree Days  
Heating Degree Days 0 0  
Month to date heating degree days 0 0  
Since 1 June heating degree days 0 0  
Since 1 July heating degree days 0 0  
Cooling Degree Days 22 20  
Month to date cooling degree days 485 424  
Year to date cooling degree days 1729 1594  
Since 1 June cooling degree days 1035 959  
Growing Degree Days 36 (Base 50)    
Moisture  
Dew Point 75 °F    
Average Humidity 66    
Maximum Humidity 82    
Minimum Humidity 50    
Precipitation  
Precipitation T in 0.11 in 3.11 in (1901)
Month to date precipitation 0.58 3.00  
Year to date precipitation 24.16 25.99  
Sea Level Pressure  
Sea Level Pressure 29.98 in    
Wind  
Wind Speed 8 mph (SSW)    
Max Wind Speed 14 mph    
Max Gust Speed 20 mph    
Visibility 10 miles    
Events Rain , Thunderstorm    
T = Trace of Precipitation, MM = Missing Value Source: NWS Daily Summary

Daily Weather History Graph

Daily Weather History Graph

Search for Another Location

Airport or City:

Astronomy

Jul. 22, 2019 Rise Set
Actual Time 6:33 AM CDT 8:17 PM CDT
Civil Twilight 6:07 AM CDT 8:43 PM CDT
Nautical Twilight 5:36 AM CDT 9:15 PM CDT
Astronomical Twilight 5:02 AM CDT 9:48 PM CDT
Moon No Moon Rise 11:30 AM CDT (7/22)
Length of Visible Light 14h 36m
Length of Day
13h 43m
Waning Gibbous, 72% of the Moon is Illuminated
Jul 22
Waning Gibbous
Jul 24
Last Quarter
Jul 31
New
Aug 7
First Quarter
Aug 15
Full

Hourly Weather History & Observations

Time (CDT) Temp. Heat Index Dew Point Humidity Pressure Visibility Wind Dir Wind Speed Gust Speed Precip Events Conditions
12:52 AM 84.0 °F 94.8 °F 78.1 °F 82% 29.96 in 10.0 mi South 12.7 mph - N/A   Scattered Clouds
1:52 AM 84.9 °F 95.3 °F 77.0 °F 77% 29.96 in 10.0 mi South 10.4 mph - N/A   Scattered Clouds
2:36 AM 84.9 °F 95.3 °F 77.0 °F 77% 29.95 in 10.0 mi South 9.2 mph - N/A   Mostly Cloudy
2:44 AM 84.9 °F 94.1 °F 75.9 °F 74% 29.95 in 10.0 mi South 10.4 mph - N/A   Scattered Clouds
2:52 AM 84.9 °F 95.3 °F 77.0 °F 77% 29.96 in 10.0 mi South 11.5 mph - N/A   Scattered Clouds
3:52 AM 84.9 °F 95.3 °F 77.0 °F 77% 29.95 in 10.0 mi South 10.4 mph - N/A   Scattered Clouds
4:52 AM 84.9 °F 95.3 °F 77.0 °F 77% 29.96 in 10.0 mi SSW 6.9 mph - N/A   Partly Cloudy
5:52 AM 84.0 °F 92.6 °F 75.9 °F 76% 29.96 in 10.0 mi SW 5.8 mph - N/A   Partly Cloudy
6:52 AM 84.0 °F 94.8 °F 78.1 °F 82% 29.99 in 10.0 mi WSW 4.6 mph - N/A   Scattered Clouds
7:52 AM 84.9 °F 97.5 °F 79.0 °F 82% 30.00 in 10.0 mi NNW 3.5 mph - N/A   Clear
8:39 AM 82.0 °F 89.4 °F 75.9 °F 82% 30.01 in 10.0 mi Calm Calm - N/A Thunderstorm Thunderstorm
8:52 AM 82.9 °F 90.8 °F 75.9 °F 79% 30.01 in 10.0 mi Calm Calm - N/A Thunderstorm Thunderstorm
9:04 AM 84.0 °F 92.6 °F 75.9 °F 76% 30.01 in 10.0 mi Variable 3.5 mph - 0.00 in Thunderstorm Mostly Cloudy
9:14 AM 84.0 °F 92.6 °F 75.9 °F 76% 30.01 in 10.0 mi ENE 3.5 mph - 0.00 in Rain Light Rain
9:52 AM 84.9 °F 92.1 °F 73.9 °F 69% 30.02 in 10.0 mi Calm Calm - 0.00 in   Mostly Cloudy
10:52 AM 82.9 °F 89.4 °F 73.9 °F 74% 30.04 in 10.0 mi South 8.1 mph - N/A   Mostly Cloudy
11:52 AM 84.0 °F 91.2 °F 73.9 °F 72% 30.05 in 10.0 mi South 12.7 mph - N/A   Partly Cloudy
12:52 PM 84.0 °F 91.2 °F 73.9 °F 72% 30.02 in 10.0 mi South 9.2 mph - N/A   Clear
1:52 PM 86.0 °F 93.0 °F 73.0 °F 65% 30.01 in 10.0 mi SSW 6.9 mph - N/A   Clear
2:52 PM 87.1 °F 94.5 °F 73.0 °F 63% 30.00 in 10.0 mi South 11.5 mph - N/A   Clear
3:52 PM 89.1 °F 96.0 °F 72.0 °F 57% 29.98 in 10.0 mi South 5.8 mph - N/A   Clear
4:52 PM 88.0 °F 92.9 °F 70.0 °F 55% 29.97 in 10.0 mi SSE 8.1 mph - N/A   Clear
5:52 PM 89.1 °F 92.9 °F 68.0 °F 50% 29.96 in 10.0 mi South 8.1 mph - N/A   Clear
6:52 PM 87.1 °F 91.3 °F 69.1 °F 55% 29.95 in 10.0 mi SSW 9.2 mph - N/A   Clear
7:52 PM 86.0 °F 93.8 °F 73.9 °F 67% 29.96 in 10.0 mi SSW 9.2 mph - N/A   Clear
8:52 PM 84.9 °F 95.3 °F 77.0 °F 77% 29.96 in 10.0 mi SSW 8.1 mph - N/A   Clear
9:52 PM 84.0 °F 93.7 °F 77.0 °F 79% 29.98 in 10.0 mi SSW 4.6 mph - N/A   Clear
10:52 PM 84.0 °F 93.7 °F 77.0 °F 79% 29.98 in 10.0 mi SSW 10.4 mph - N/A   Clear
11:52 PM 84.0 °F 94.8 °F 78.1 °F 82% 29.97 in 10.0 mi SSW 6.9 mph - N/A   Clear